User: anonymous   Login
Location: Pebble Beach Sunset Acres
(33.0837°N, 96.4508°W)
Time: 00:57:06
(UTC+00:00)
Language:

Meteor 2-15 Rocket - Orbit

View from above orbital plane
View from above orbital plane
View from above satellite
View from above satellite

Ground track
Ground track

The orbit data is extracted from the following two-line orbital elements,

1 17291U 87001B   22147.59090751  .00000033  00000-0  16059-4 0  9999
2 17291  82.4692 210.8926 0011805  28.7770 331.4039 13.84594154788254
Epoch (UTC): 27 May 2022 14:10:54
Eccentricity: 0.0011805
inclination: 82.4692°
perigee height: 939 km
apogee height: 956 km
right ascension of ascending node: 210.8926°
argument of perigee: 28.7770°
revolutions per day: 13.84594154
mean anomaly at epoch: 331.4039°
orbit number at epoch: 78825

The dashed part of the orbit path shows where the satellite is in the earth's shadow,  

DLR